Find OneWeb SL0374

NORAD ID: 49300 Int'l Des: 2021-090 Owner: ONEWEBN Country: UK Constellation: oneweb operational
LEOCIRCULARPOLARONEWEB_TYPE

Live Position

Loading 3D Globe...

About OneWeb SL0374

Description loading...

Upcoming Passes

Passes for default location (London). Set your location on the main map for personalized predictions.

Altitude History

Loading altitude history...

Two-Line Element Set

1 49300U 21090X 26106.23497223 .00000144 00000-0 35510-3 0 9991
2 49300 87.8930 302.0625 0001710 110.4735 249.6578 13.14502839219426
Epoch: Apr 16, 2026 • Age: 11 hours

Current Status

Altitude 1215.6 km
Velocity 7.25 km/s
Sub-Earth Point 62.27°N, 152.62°W
Launch Date Oct 14, 2021
Age 4.5 years
Type internet

Technical Details

Classification Payload
Mass 148.00 kg
Dry Mass 140.00 kg
Total Mass 148.00 kg
Length 1.30 m
Diameter 1.00 m
Span 5.00 m
Shape Trapezoid+2 pan
Manufacturer ONEWUS
Bus Type ARROW
Phase Status In Orbit
Owner/State ONEWEBN/UK

Most Searched